Location: Blue Bell Mine
(37.9608°N, 107.9248°W)
Time: 01:19:53
(UTC+00:00)

Daily predictions for brighter satellites

Satellite Brightness Start Highest point End
(mag) Time Altitude Azimuth Time Altitude Azimuth Time Altitude Azimuth
BREEZE M DEB (TANK) 3.7 02:46:11 10° WSW 02:49:16 58° NNW 02:58:19 10° NE
Cosmos 1544 3.0 02:46:20 10° N 02:49:50 60° E 02:53:18 10° SSE
IGS 5A 4.0 02:46:00 10° SE 02:49:52 40° ENE 02:53:47 10° N
IRS-1C Rocket 4.1 02:44:58 10° SSE 02:50:12 80° ENE 02:55:29 10° N
USA 238 DEB 4.1 02:42:57 10° NNW 02:50:21 72° NE 02:58:04 10° SE
USA 238 4.1 02:43:04 10° NNW 02:50:27 71° NE 02:58:11 10° SE
Okean-O 2.7 02:51:01 10° SSE 02:55:26 89° WSW 02:59:53 10° NNW
USA 234 4.3 02:49:41 10° SSE 02:55:48 42° SW 03:01:58 10° WNW
Meteor 2-6 Rocket 4.2 02:53:55 10° S 02:59:18 89° E 03:04:48 10° N
Cosmos 2233 Rocket 4.2 02:54:45 10° S 03:01:04 83° W 03:07:25 10° N
CSL-04 Rocket 3.7 02:56:27 10° SSE 03:01:45 86° WSW 03:07:08 10° NNW
Aureole 1 Rocket 2.9 02:59:57 10° S 03:03:05 34° ESE 03:05:53 10° NE
Cosmos 2344 3.7 02:55:57 10° S 03:03:30 51° ESE 03:10:35 10° NE
Cosmos 1536 4.2 03:02:28 10° NNE 03:05:45 23° ENE 03:08:52 11° SE
RESURS DK-1 3.9 03:05:40 10° SE 03:08:14 16° ESE 03:10:49 10° ENE
ASTRO E2 3.8 03:05:06 10° WSW 03:08:30 28° S 03:11:34 12° SE
Cosmos 2227 Rocket 2.5 03:03:11 10° NNW 03:08:46 56° ENE 03:14:18 10° SE
SL-4 R/B 3.2 03:05:27 10° NW 03:09:47 39° NNE 03:13:51 10° E
Cosmos 1184 Rocket 4.0 03:07:31 10° SE 03:09:48 20° E 03:12:08 10° NE
Cosmos 1980 Rocket 2.6 03:08:03 10° S 03:13:13 40° ESE 03:18:27 10° NE
Spot 2 4.3 03:13:02 10° S 03:17:04 65° WSW 03:21:05 10° NNW
H-2A R/B 1.9 03:13:19 10° NNE 03:17:25 76° ESE 03:21:32 10° S
ARGOS Delta rocket 4.5 03:12:26 10° NNE 03:17:43 47° E 03:22:49 10° S
Cosmos 1570 Rocket 4.3 03:14:45 10° NNW 03:19:57 68° WSW 03:25:10 10° S
Cosmos 1328 Rocket 3.6 03:15:42 10° S 03:20:00 83° W 03:24:21 10° N
Cosmos 1486 Rocket 4.0 03:18:06 10° SSW 03:23:24 85° ESE 03:28:42 10° NNE
Cosmos 2369 3.7 03:18:01 10° S 03:23:31 58° ESE 03:29:04 10° NNE
MetOp-A 4.0 03:22:47 10° S 03:26:47 56° WSW 03:30:36 10° NNW
Cosmos 405 2.8 03:23:48 10° N 03:27:12 68° E 03:30:04 14° SSE
Cosmos 389 Rocket 3.4 03:25:24 10° NNE 03:28:33 30° ENE 03:30:24 19° SE
CZ-4B R/B 1.1 03:26:46 10° NNE 03:29:55 66° E 03:33:00 10° S
Cosmos 1464 Rocket 4.1 03:24:10 10° SSE 03:30:12 57° E 03:36:13 10° NNE
Cosmos 1697 Rocket 3.1 03:26:13 10° SSW 03:31:50 68° WNW 03:37:30 10° NNE
USA 186 4.1 03:33:29 10° SW 03:34:42 13° W 03:35:56 10° WNW
Cosmos 1515 3.5 03:32:13 10° S 03:35:59 82° E 03:39:45 10° N
MOS 1 4.3 03:31:08 12° SSE 03:36:27 73° ENE 03:42:06 10° N
OBJECT-B 3.9 03:37:48 10° W 03:38:11 10° W 03:38:35 10° W
Meteor 2-19 Rocket 4.5 03:32:01 10° N 03:38:13 89° E 03:44:21 10° S
Cosmos 1340 2.6 03:41:42 10° S 03:45:24 84° W 03:49:09 10° N
Cosmos 2297 Rocket 3.1 03:40:04 10° NW 03:45:26 46° WSW 03:50:47 10° S
Nadezhda 4 Rocket 4.3 03:42:36 10° N 03:48:34 48° E 03:52:28 21° SE
ATLAS 2AS CENTAUR R/B 2.9 03:41:06 10° SSW 03:48:50 68° ESE 03:56:26 10° NE
Cosmos 1933 Rocket 3.7 03:44:44 10° N 03:49:09 58° E 03:51:46 23° SSE
Cosmos 1503 Rocket 4.0 03:47:30 10° SSW 03:52:45 89° WNW 03:58:06 10° NNE
ERS-1 Rocket 4.4 03:52:27 18° E 03:54:35 23° ENE 03:58:31 10° NNE
SJ 16-02 1.3 03:52:33 12° S 03:56:29 63° ESE 04:00:49 10° NNE
SL-16 R/B 3.2 04:00:33 24° ESE 04:01:32 25° ESE 04:06:04 10° NE
ATLAS 5 CENTAUR R/B 4.0 03:57:52 10° WSW 04:02:28 13° SW 04:05:27 10° SSW
Cosmos 1743 2.7 03:59:21 10° N 04:03:08 76° W 04:05:10 26° S
SPOT 1/Viking Rocket 3.6 04:02:44 20° S 04:06:25 80° WSW 04:11:36 10° NNW
Cosmos 1346 Rocket 4.2 04:11:56 23° E 04:11:56 23° E 04:14:48 10° NE
Timation 2 Rocket 4.2 04:06:40 10° NNW 04:13:18 72° ENE 04:17:03 29° SE
ATLAS 3B R/B 4.2 04:11:07 10° NNW 04:17:22 29° NE 04:22:21 15° E
OAO 3 Rocket 3.6 04:13:17 10° W 04:18:01 46° SSW 04:19:18 37° SSE
EXPRESS MD2 3.2 04:13:12 10° NW 04:18:24 70° NNE 04:19:08 50° E
Meteor 1-18 Rocket 4.3 04:16:32 28° SSE 04:19:25 58° E 04:24:57 10° NNE
Resurs 01 Rocket 2.7 04:16:57 16° SSW 04:20:02 40° W 04:24:12 10° NNW
Cosmos 2278 3.7 04:16:25 10° SSW 04:22:04 86° WNW 04:27:47 10° NNE
Ariane Rocket 3.5 04:20:59 22° S 04:24:11 56° W 04:29:11 10° NNW
SPOT 5 3.3 04:22:34 35° SE 04:24:28 53° ENE 04:29:29 10° N
Terra 2.7 04:23:27 30° E 04:24:32 33° ENE 04:28:47 10° N
ISS -1.6 04:22:16 10° NNW 04:24:50 20° NNE 04:25:58 17° NE
Cosmos 2219 4.4 04:20:01 10° NW 04:25:06 36° WSW 04:28:56 16° SSW
Cosmos 2360 Rocket 3.9 04:27:31 16° E 04:27:31 16° E 04:29:56 10° ENE
Cosmos 1378 3.1 04:26:30 58° E 04:26:34 58° E 04:30:10 10° NNE
Meteor 2-21 4.4 04:21:52 10° N 04:28:00 81° E 04:31:02 32° SSE
Cosmos 921 Rocket 3.2 04:23:33 10° NNW 04:28:03 73° WSW 04:29:35 40° S
Cosmos 2292 Rocket 4.0 04:28:59 10° N 04:30:54 30° NE 04:30:54 30° NE
Cosmos 2082 3.9 04:26:17 10° NNW 04:31:51 66° WSW 04:34:24 32° S
SWAS 4.4 04:28:02 10° NNW 04:32:20 77° WSW 04:33:21 51° S
CARTOSAT-1 3.7 04:31:39 38° S 04:33:10 66° W 04:37:27 10° NNW
Cosmos 2034 Rocket 4.4 04:27:22 11° SSW 04:33:26 65° W 04:39:44 10° N
Cosmos 2263 Rocket 2.3 04:28:38 10° NNW 04:34:11 62° ENE 04:35:57 41° SE
Cosmos 2228 Rocket 3.3 04:36:11 32° SSW 04:38:14 73° W 04:42:47 10° N
Cosmos 1869 Rocket 3.5 04:34:45 10° N 04:39:14 83° W 04:40:20 51° S
Okean 1 4.4 04:37:50 21° SW 04:40:06 42° W 04:43:56 10° N
Meteor 2-21 Rocket 4.4 04:35:50 10° N 04:41:58 78° E 04:44:16 41° SSE
RESURS DK-1 3.9 04:42:05 10° SW 04:45:53 36° WNW 04:49:43 10° N
SL-4 R/B 3.0 04:45:14 10° WNW 04:49:17 35° SW 04:49:24 35° SW
Cosmos 2227 Rocket 4.3 04:48:32 10° WNW 04:52:16 18° W 04:56:00 10° SW
Cosmos 2279 Rocket 4.2 04:51:40 44° SE 04:52:59 52° E 04:59:00 10° NNE
Meteor 2-16 Rocket 4.4 04:47:31 10° N 04:53:43 81° E 04:55:38 47° SSE
NOSS 2-1 (C) 3.6 04:55:02 48° WNW 04:55:13 49° NW 04:58:20 10° NNE
Cosmos 1980 Rocket 4.2 04:52:34 10° WSW 04:57:18 27° WNW 05:02:05 10° N
Spot 2 Rocket 3.5 04:56:36 50° SSW 04:57:49 71° WSW 05:02:52 10° NNW
SL-24 R/B - RUBIN 2 4.0 04:54:19 10° NNW 04:58:37 49° NE 04:58:57 48° ENE
ATLAS CENTAUR R/B 4.4 04:58:35 10° NNE 04:59:23 10° NE 05:00:11 10° NE
Cosmos 1707 Rocket 3.5 04:59:41 68° SW 05:00:11 79° W 05:04:37 10° N
ARIANE 5 R/B 2.6 05:01:18 65° E 05:01:23 65° ENE 05:05:50 10° N
SPOT 3 Rocket 4.5 04:59:23 28° SW 05:01:23 40° W 05:06:13 10° NNW
Cosmos 2322 Rocket 2.1 05:04:59 61° SE 05:05:36 66° ESE 05:11:10 10° NNE
NOSS 2-1 (D) 4.3 05:05:15 34° WNW 05:05:42 36° NW 05:08:40 10° NNE
Meteor 1-4 Rocket 4.5 05:07:53 10° NNE 05:09:33 21° NE 05:09:33 21° NE
Cosmos 2333 Rocket 3.8 05:13:10 21° ENE 05:13:10 21° ENE 05:15:53 10° NE
Cosmos 1975 3.2 05:08:10 10° NNW 05:11:59 58° W 05:11:59 58° W
USA 215 3.4 05:06:49 10° NE 05:12:52 47° ESE 05:12:52 47° ESE
Meteor 2-4 Rocket 4.2 05:10:31 32° SW 05:13:07 60° WNW 05:18:43 10° N
Cosmos 1844 Rocket 4.0 05:08:47 10° N 05:13:30 27° ENE 05:14:32 25° ENE
Cosmos 44 Rocket 3.1 05:10:18 10° NNW 05:14:58 84° NE 05:14:58 84° NE
Helios 1A Rocket 4.4 05:19:41 27° WSW 05:19:52 27° W 05:23:19 10° NW
Cosmos 2180 Rocket 4.4 05:20:10 61° SE 05:20:56 67° E 05:27:01 10° NNE
Cosmos 158 Rocket 4.3 05:22:56 10° NNW 05:27:59 55° WSW 05:28:23 53° WSW
Cosmos 2219 Rocket 3.8 05:31:30 21° ENE 05:31:30 21° ENE 05:34:05 10° NE
ERS-1 Rocket 3.9 05:32:27 35° WSW 05:33:07 37° W 05:37:47 10° NNW
Cosmos 1733 Rocket 3.5 05:29:10 10° NNW 05:33:09 59° WNW 05:33:09 59° WNW
SJ 16-02 4.3 05:34:04 10° WNW 05:35:28 11° WNW 05:36:52 10° NW
Cosmos 2227 4.4 05:31:35 10° NNW 05:37:14 60° WSW 05:37:41 58° SW
Cosmos 1726 4.4 05:35:10 10° NNE 05:36:34 18° NE 05:36:34 18° NE
SL-16 R/B 3.3 05:42:19 23° WSW 05:45:20 41° WNW 05:50:42 10° N
Cosmos 1538 Rocket 4.4 05:41:04 10° NNW 05:46:01 53° W 05:46:01 53° W
Geosat 4.0 05:49:21 76° NNE 05:49:21 76° NNE 05:54:03 10° NNW
Meteor 2-10 4.1 05:48:11 10° N 05:52:51 67° NNE 05:52:51 67° NNE
ISS -0.6 05:58:31 10° WNW 05:58:52 12° WNW 05:58:52 12° WNW
Terra 3.6 06:02:20 23° W 06:02:20 23° W 06:06:03 10° NW
Cosmos 1937 Rocket 3.7 06:03:15 66° NNE 06:03:15 66° NNE 06:07:45 10° NNE
Cosmos 1655 Rocket 3.8 05:57:30 10° N 06:03:45 80° E 06:03:55 79° ESE
COSMOS 2428 4.0 06:05:45 29° ENE 06:05:45 29° ENE 06:09:08 10° NE
Cosmos 923 Rocket 4.1 05:59:00 10° NNW 06:03:49 73° NNW 06:03:49 73° NNW
ATLAS 3B R/B 2.8 06:01:16 10° NW 06:08:41 70° WSW 06:09:35 64° SSW
Cosmos 2360 Rocket 2.5 06:09:14 55° W 06:09:46 57° WNW 06:15:21 10° NNE
CZ-4C R/B 4.3 06:03:27 10° NNW 06:09:58 33° NE 06:14:45 19° E
Meteor 1-15 Rocket 4.2 06:05:03 10° N 06:10:24 76° NE 06:10:24 76° NE
Cosmos 2333 4.3 06:16:37 73° NNE 06:16:37 73° NNE 06:21:40 10° NNE
Cosmos 2263 Rocket 4.2 06:14:17 10° WNW 06:17:28 16° W 06:17:39 16° W
Okean 1-7 4.4 06:21:25 37° NW 06:21:25 37° NW 06:24:30 10° N
Spot 4 4.5 06:22:45 53° N 06:22:45 53° N 06:26:28 10° N
Cosmos 2112 Rocket 4.3 06:19:35 10° NNW 06:24:04 63° NNW 06:24:04 63° NNW
Cosmos 1680 Rocket 3.9 06:20:34 10° NNW 06:24:56 60° NW 06:24:56 60° NW
Iridium 4 Rocket 4.2 06:28:57 10° NNW 06:32:34 45° NW 06:32:34 45° NW
Cosmos 2278 Rocket 4.3 06:30:24 10° N 06:34:10 18° NE 06:36:05 15° ENE
Cosmos 2266 Rocket 4.2 06:28:08 10° NNW 06:34:11 56° W 06:34:11 56° W
Cosmos 1818 3.9 06:30:37 10° NNW 06:35:13 63° NNW 06:35:13 63° NNW
ATLAS CENTAUR R/B 2.8 06:34:23 10° NNW 06:37:47 43° N 06:37:47 43° N
Meteor 2-17 Rocket 4.4 06:35:58 10° N 06:41:52 76° NE 06:41:52 76° NE
Meteor 1-22 Rocket 4.4 06:36:45 10° N 06:42:21 77° NW 06:42:21 77° NW
Cosmos 2322 Rocket 4.5 06:46:43 11° W 06:50:08 18° NW 06:53:52 10° NNW
Cosmos 2322 4.0 06:54:58 61° NW 06:54:58 61° NW 07:00:20 10° NNE
Cosmos 2333 Rocket 3.0 06:55:08 43° WNW 06:55:24 43° WNW 07:00:49 10° N
USA 215 4.0 06:49:48 10° NE 06:56:03 49° NW 07:00:09 22° W
Cosmos 1844 Rocket 3.8 06:52:18 10° NW 06:56:11 34° WNW 06:56:11 34° WNW
ADEOS Rocket 2.9 07:00:12 71° NNE 07:00:12 71° NNE 07:05:35 10° N
Cosmos 2219 Rocket 3.0 07:13:10 40° WNW 07:13:17 41° WNW 07:18:32 10° N
S3M 4.1 07:22:53 69° E 07:22:53 69° E 07:29:02 10° NNE
Cosmos 1125 Rocket 4.1 07:24:33 51° NE 07:24:33 51° NE 07:28:27 10° NNE
CZ-2D R/B 4.4 07:24:08 10° ENE 07:26:09 12° E 07:26:09 12° E
Cosmos 1553 Rocket 4.0 07:26:47 67° WNW 07:26:47 67° WNW 07:32:39 10° N
USA 267 3.6 07:26:11 39° ESE 07:28:37 63° NE 07:35:04 10° NW
USA 229 DEB 4.2 07:30:01 10° NNW 07:37:27 65° NE 07:40:07 43° ESE
USA 229 4.2 07:30:07 10° NNW 07:37:32 65° NE 07:40:15 42° ESE
NOSS 0 Rocket 3.9 07:40:53 73° WNW 07:40:53 73° WNW 07:47:05 10° NNE
Cosmos 2237 Rocket 2.4 07:43:57 70° NNE 07:43:57 70° NNE 07:48:58 10° NNE
Cosmos 1953 4.2 07:40:44 10° N 07:42:45 28° N 07:42:45 28° N
COSMOS 2428 3.9 07:47:44 30° WNW 07:48:16 31° WNW 07:53:16 10° N
Resurs 1-4 Rocket 3.8 07:47:21 10° NE 07:51:19 23° E 07:51:19 23° E
CZ-4C R/B 3.0 07:51:27 10° NW 07:59:04 68° WSW 07:59:52 64° SSW
Cosmos 1943 Rocket 4.1 07:56:41 10° N 08:01:16 24° ENE 08:05:07 13° ESE
NOSS 3-1 (A) 4.1 07:56:21 10° NW 08:04:13 74° WSW 08:05:48 61° S
ADEOS II 4.2 08:01:38 10° ENE 08:04:37 15° E 08:05:23 15° ESE
Meteor 2-12 Rocket 4.3 07:58:58 10° N 08:05:00 88° NNW 08:05:00 88° NNW
Thor Agena Rocket 3.9 08:01:51 10° NNE 08:06:38 60° ENE 08:06:38 60° ENE
Cosmos 1745 Rocket 4.1 08:02:28 10° NNW 08:08:16 58° W 08:08:16 58° W
Okean 1 Rocket 4.5 08:07:34 10° NNW 08:10:12 33° NNW 08:10:12 33° NNW
Cosmos 2278 Rocket 2.5 08:13:08 10° NNW 08:17:53 57° WNW 08:17:53 57° WNW
NOSS 2-2 (D) 4.4 08:15:43 10° NW 08:21:22 77° WSW 08:21:47 74° SSW
Lacrosse 5 2.1 08:22:52 68° NNE 08:22:52 68° NNE 08:27:22 10° NE
USA 32 4.4 08:25:01 53° NW 08:25:01 53° NW 08:29:35 10° N
NPP 4.4 08:22:06 10° NNE 08:27:10 40° E 08:27:35 40° ESE
Cosmos 1455 4.3 08:25:01 10° NNE 08:27:34 21° ENE 08:27:34 21° ENE
SL-16 R/B 2.2 08:31:39 71° ESE 08:31:44 71° ESE 08:37:24 10° NNE
Cosmos 1269 Rocket 4.2 08:36:09 10° NNW 08:41:25 67° ENE 08:42:07 60° ESE
Meteor 2-10 Rocket 3.7 08:37:15 10° NNW 08:42:26 61° WNW 08:42:26 61° WNW
MOZ.5/SAFIR/RUBIN 5/SL-8 4.2 08:48:05 54° NW 08:48:05 54° NW 08:51:59 10° NNW
Cosmos 1455 Rocket 3.7 08:44:29 10° NNW 08:47:53 49° NW 08:47:53 49° NW
SL-16 R/B 3.0 08:46:14 30° SE 08:49:16 57° ENE 08:55:22 10° N
Cosmos 1536 Rocket 4.2 08:53:49 49° E 08:53:51 49° E 08:58:06 10° NNE
SME Rocket 3.6 08:56:26 51° NW 08:56:26 51° NW 09:00:10 10° NNW
Cosmos 2074 Rocket 4.1 08:49:17 10° N 08:55:36 71° E 08:57:48 42° SSE
Meteor 1-24 Rocket 3.6 08:56:21 66° WSW 08:56:47 69° W 09:02:15 10° N
Cosmos 292 Rocket 4.0 08:59:23 57° ESE 08:59:39 58° ESE 09:04:21 10° NNE
Cosmos 1975 Rocket 4.3 09:02:20 31° WNW 09:02:20 31° WNW 09:05:37 10° NNW
COSMOS 2455 2.8 09:01:17 60° S 09:02:24 77° ESE 09:08:26 10° NNE
Cosmos 1025 Rocket 4.1 09:04:29 35° NW 09:04:29 35° NW 09:07:45 10° N
CZ-2D R/B 2.0 09:01:29 10° N 09:06:49 72° WNW 09:07:28 64° WSW
USA 267 4.1 09:13:28 30° W 09:13:28 30° W 09:17:39 10° WNW
Cosmos 2184 Rocket 3.9 09:05:45 10° N 09:12:01 88° W 09:14:05 45° S
Lacrosse 5 rocket 2.2 09:12:11 38° NW 09:12:11 38° NW 09:15:48 10° NNE
Molniya-1 4.3 09:12:06 54° SW 09:13:16 77° NW 09:24:50 10° NNE
YAOGAN 11 4.2 09:17:35 57° SE 09:18:24 76° ENE 09:22:54 10° N
MSX 4.4 09:15:11 10° NNE 09:20:49 52° E 09:23:23 31° SSE
Cosmos 1703 3.5 09:20:57 60° ESE 09:21:07 61° E 09:25:00 10° NNE
OAO 2 Rocket 4.2 09:21:48 34° SE 09:21:48 34° SE 09:25:38 10° E
Cosmos 1943 3.8 09:23:26 33° SSE 09:25:33 49° ESE 09:31:01 10° NNE
EO 1 Del DPAF 3.2 09:23:21 10° NNE 09:26:39 67° ENE 09:26:39 67° ENE
UNK 3.6 09:27:09 62° SSW 09:27:51 78° WSW 09:32:28 10° NNW
Cosmos 2237 Rocket 4.3 09:25:45 11° WNW 09:28:04 14° NW 09:31:01 10° NNW
CZ-4 R/B 4.4 09:24:28 10° N 09:28:45 38° WNW 09:29:07 37° W
Helios 1A 3.4 09:28:06 35° SE 09:29:41 60° ENE 09:33:51 10° N
Resurs 1-4 Rocket 2.7 09:26:29 10° N 09:31:22 40° WNW 09:32:24 36° W
Lacrosse 4 Rocket 4.2 09:33:41 10° ESE 09:34:18 10° ESE 09:34:56 10° E
Cosmos 1544 Rocket 4.3 09:31:19 10° NNW 09:34:59 37° WNW 09:34:59 37° WNW
Nadezhda 1 Rocket 4.1 09:38:22 39° SSW 09:40:45 64° W 09:47:02 10° N
Meteor 1-28 Rocket 3.0 09:40:53 71° S 09:41:15 84° W 09:44:58 10° NNW
Cosmos 614 Rocket 3.8 09:36:28 10° NNW 09:41:42 79° WSW 09:44:21 30° S
NOSS 3-3 (A) 3.7 09:39:54 41° SSW 09:41:57 83° ESE 09:48:10 10° NE
NOSS 3-3 (C) 3.7 09:40:00 41° SSW 09:42:03 82° ESE 09:48:16 10° NE
IDEFIX/ARIANE 42P 2.5 09:37:56 10° N 09:43:12 75° WNW 09:45:05 41° SSW
ADEOS II 2.2 09:39:28 10° N 09:44:38 59° WNW 09:46:19 40° SW
Cosmos 1943 Rocket 2.4 09:39:49 10° NW 09:45:13 46° WSW 09:46:34 39° SW
MOS 1 Rocket 3.3 09:49:39 46° WSW 09:50:01 47° W 09:54:10 10° NNW
ALOS 4.4 09:47:14 10° NE 09:50:48 21° E 09:54:20 10° SE
Cosmos 2297 3.8 09:47:34 10° NNW 09:53:08 53° WSW 09:55:48 29° SSW
Cosmos 1892 Rocket 4.3 09:51:00 22° SSE 09:53:37 50° E 09:57:57 10° NNE
IRS-1D 3.6 09:48:40 10° NNE 09:54:01 81° ESE 09:56:50 29° S
Cosmos 2251 Rocket 3.5 09:50:38 10° NNW 09:55:55 82° ENE 10:01:13 10° SSE
Cosmos 1726 Rocket 4.2 09:55:31 10° N 09:59:50 53° E 10:04:05 10° SSE
ATLAS 2A CENTAUR R/B 4.4 09:50:14 21° SW 10:02:32 45° S 10:10:30 10° ESE
Cosmos 1455 4.0 10:00:30 10° NW 10:02:19 18° WNW 10:02:19 18° WNW
Lacrosse 5 4.0 10:02:23 10° WNW 10:05:55 19° NNW 10:09:28 10° NNE
CZ-2C R/B 3.9 10:05:18 10° NNE 10:09:55 34° E 10:14:23 10° SSE
Cosmos 2366 rocket 4.4 10:06:25 10° N 10:12:31 62° E 10:18:39 10° SSE
Cosmos 1271 Rocket 3.6 10:09:28 10° NNW 10:12:52 30° W 10:13:07 30° W
Cosmos 2369 Rocket 2.1 10:10:14 10° NNW 10:15:48 71° WSW 10:21:21 10° SSE
SL-16 R/B 4.1 10:13:31 12° W 10:16:25 17° NW 10:20:01 10° NNW
Cosmos 1656 Rocket 3.5 10:11:38 10° NNW 10:17:04 88° WSW 10:22:30 10° SSE
Cosmos 2341 Rocket 4.0 10:10:41 10° N 10:17:06 82° W 10:23:28 10° S
SL-8 Rocket 4.1 10:12:37 10° N 10:18:59 85° E 10:25:18 10° S
Cosmos 2228 3.6 10:16:54 10° NNW 10:20:57 39° W 10:22:40 27° SW
Cosmos 1420 Rocket 4.2 10:24:22 15° S 10:28:39 69° ESE 10:33:49 10° NNE
SL-16 R/B 3.8 10:31:19 18° WSW 10:33:11 21° W 10:37:42 10° NW
SL-24 DEB 4.2 10:29:45 10° S 10:34:29 87° W 10:39:13 10° N
Genesis I 3.5 10:32:45 10° NNW 10:36:48 72° ENE 10:40:43 10° SE
Cosmos 1626 Rocket 4.4 10:33:31 10° SSE 10:37:45 49° E 10:41:59 10° NNE
Cosmos 2058 Rocket 3.1 10:33:58 10° N 10:38:22 84° E 10:42:42 10° S
Cosmos 407 Rocket 3.4 10:33:08 10° NNW 10:38:26 73° WSW 10:43:37 10° S
Cosmos 1371 Rocket 4.0 10:35:37 18° SSW 10:39:28 66° WNW 10:44:38 10° NNE
Cosmos 1603 4.3 10:35:48 19° SW 10:39:32 44° WNW 10:44:56 10° N
GPS 2-04 Rocket1 2.6 10:39:11 23° WSW 10:41:01 50° S 10:44:26 10° E
Cosmos 1140 Rocket 3.5 10:40:28 10° NNW 10:45:38 59° WSW 10:50:44 10° S
SeaSat 1 3.4 10:42:10 10° NE 10:46:52 44° ESE 10:51:33 10° S
Helios 1B rocket 2.8 10:46:23 10° N 10:50:16 45° WNW 10:53:30 14° SW
MOS 1-B Rocket 3.9 10:48:36 10° S 10:54:09 60° W 10:59:47 10° NNW
Cosmos 1825 2.3 10:52:00 10° S 10:55:42 72° E 10:59:25 10° NNE
CZ-2D R/B 3.8 10:55:51 10° NNE 10:59:49 63° E 11:03:43 10° S
Nadezhda 3 Rocket 4.3 10:54:24 10° S 11:00:42 74° E 11:06:57 10° N
Cosmos 1954 Rocket 4.2 10:57:24 10° NNW 11:02:45 79° ENE 11:08:02 10° SSE
METEOR-M 4.4 10:57:38 10° NNE 11:03:00 74° ESE 11:08:19 10° S
Cosmos 2218 Rocket 4.3 10:57:28 10° NNW 11:03:28 50° W 11:09:31 10° SSW
OAO 2 Rocket 3.4 11:00:43 10° WSW 11:05:32 61° S 11:10:24 10° E
Cosmos 1408 3.7 11:09:12 10° SW 11:12:14 26° WNW 11:15:20 10° NNW
Lacrosse 4 Rocket 1.6 11:08:07 10° SW 11:12:23 63° WNW 11:16:35 10° NNE
SEDSat Delta rocket 4.4 11:08:20 10° WSW 11:14:48 49° S 11:21:09 10° ESE
ARIANE 5 R/B 2.6 11:10:57 10° N 11:15:57 63° WNW 11:20:52 10° SSW
Cosmos 1892 3.7 11:12:57 10° SW 11:16:16 29° WNW 11:19:35 10° NNW
IRS-1C 4.4 11:11:58 10° N 11:17:09 53° WNW 11:22:18 10° SSW
Intercosmos 25 Rocket 3.8 11:14:05 10° N 11:17:46 82° E 11:23:19 10° S
Cosmos 1484 Rocket 3.0 11:17:08 10° NNE 11:21:01 75° ESE 11:24:57 10° S
Okean 1-7 Rocket 4.1 11:17:43 10° SSW 11:21:52 40° W 11:26:02 10° N
Cosmos 1821 Rocket 4.1 11:15:34 10° N 11:21:58 78° W 11:28:20 10° S
Cosmos 1812 Rocket 4.1 11:17:45 10° N 11:22:09 66° E 11:26:33 10° SSE
NOSS 3-4 (A) 4.4 11:21:08 10° NNW 11:28:18 72° NE 11:36:20 10° SE
NOSS 3-4 (C) 4.4 11:21:13 10° NNW 11:28:21 72° NE 11:36:21 10° SE
